Time,TemperatureF,DewpointF,PressureIn,WindDirection,WindDirectionDegrees,WindSpeedMPH,WindSpeedGustMPH,Humidity,HourlyPrecipIn,Conditions,Clouds,dailyrainin,SoftwareType,DateUTC
2013-10-26 00:02:00,38.7,29.1,30.34,SSW,209,0.0,0.0,68,0.00,,,0.00,WeatherTracker,2013-10-26 05:02:00,
2013-10-26 00:07:00,38.7,29.1,30.34,SSW,209,0.0,0.0,68,0.00,,,0.00,WeatherTracker,2013-10-26 05:07:00,
2013-10-26 00:12:00,38.6,29.7,30.34,SSW,209,0.0,0.0,70,0.00,,,0.00,WeatherTracker,2013-10-26 05:12:00,
2013-10-26 00:17:00,38.6,29.3,30.34,SSW,209,0.0,0.0,69,0.00,,,0.00,WeatherTracker,2013-10-26 05:17:00,
2013-10-26 00:22:00,38.6,29.3,30.34,SSW,209,0.0,0.0,69,0.00,,,0.00,WeatherTracker,2013-10-26 05:22:00,
2013-10-26 00:27:00,38.7,29.4,30.34,SSW,209,0.0,0.0,69,0.00,,,0.00,WeatherTracker,2013-10-26 05:27:00,
2013-10-26 00:32:00,38.8,29.9,30.34,SSW,207,0.0,0.0,70,0.00,,,0.00,WeatherTracker,2013-10-26 05:32:00,
2013-10-26 00:37:00,38.9,29.6,30.34,SSW,208,0.0,0.0,69,0.00,,,0.00,WeatherTracker,2013-10-26 05:37:00,
2013-10-26 00:42:00,38.9,30.0,30.33,SSW,207,0.0,0.0,70,0.00,,,0.00,WeatherTracker,2013-10-26 05:42:00,
2013-10-26 00:47:00,38.9,29.3,30.34,SSW,207,0.0,0.0,68,0.00,,,0.00,WeatherTracker,2013-10-26 05:47:00,
2013-10-26 00:52:00,39.0,29.3,30.33,SSW,207,0.0,0.0,68,0.00,,,0.00,WeatherTracker,2013-10-26 05:52:00,
2013-10-26 00:58:00,39.1,29.1,30.33,SSW,207,0.0,0.0,67,0.00,,,0.00,WeatherTracker,2013-10-26 05:58:00,
2013-10-26 01:03:00,39.2,29.5,30.33,SSW,207,0.0,0.0,68,0.00,,,0.00,WeatherTracker,2013-10-26 06:03:00,
2013-10-26 01:08:00,39.3,29.6,30.32,SSW,205,0.0,0.0,68,0.00,,,0.00,WeatherTracker,2013-10-26 06:08:00,
2013-10-26 01:13:00,39.5,30.2,30.32,SSW,205,0.0,0.0,69,0.00,,,0.00,WeatherTracker,2013-10-26 06:13:00,
2013-10-26 01:18:00,39.6,29.9,30.33,SSW,205,0.0,0.0,68,0.00,,,0.00,WeatherTracker,2013-10-26 06:18:00,
2013-10-26 01:23:00,39.7,30.0,30.33,SSW,205,0.0,0.0,68,0.00,,,0.00,WeatherTracker,2013-10-26 06:23:00,
2013-10-26 01:28:00,39.8,29.8,30.32,SSW,205,0.0,0.0,67,0.00,,,0.00,WeatherTracker,2013-10-26 06:28:00,
2013-10-26 01:33:00,39.9,29.8,30.32,SSW,205,0.0,0.0,67,0.00,,,0.00,WeatherTracker,2013-10-26 06:33:00,
2013-10-26 01:38:00,40.0,29.2,30.32,SSW,200,0.0,0.0,65,0.00,,,0.00,WeatherTracker,2013-10-26 06:38:00,
2013-10-26 01:43:00,40.1,29.7,30.32,SSW,200,0.0,0.0,66,0.00,,,0.00,WeatherTracker,2013-10-26 06:43:00,
2013-10-26 01:48:00,40.1,29.7,30.32,SSW,200,0.0,0.0,66,0.00,,,0.00,WeatherTracker,2013-10-26 06:48:00,
2013-10-26 01:53:00,40.1,29.7,30.32,ESE,113,1.0,0.0,66,0.00,,,0.00,WeatherTracker,2013-10-26 06:53:00,
2013-10-26 01:58:00,40.1,29.7,30.31,ESE,112,0.0,0.0,66,0.00,,,0.00,WeatherTracker,2013-10-26 06:58:00,
2013-10-26 02:03:00,40.2,29.8,30.31,ESE,109,0.0,0.0,66,0.00,,,0.00,WeatherTracker,2013-10-26 07:03:00,
2013-10-26 02:08:00,40.2,29.8,30.31,ESE,109,0.0,0.0,66,0.00,,,0.00,WeatherTracker,2013-10-26 07:08:00,
2013-10-26 02:13:00,40.3,29.5,30.31,ENE,67,0.0,0.0,65,0.00,,,0.00,WeatherTracker,2013-10-26 07:13:00,
2013-10-26 02:18:00,40.3,29.1,30.31,ENE,72,0.0,0.0,64,0.00,,,0.00,WeatherTracker,2013-10-26 07:18:00,
2013-10-26 02:23:00,40.4,29.6,30.31,ESE,104,0.0,0.0,65,0.00,,,0.00,WeatherTracker,2013-10-26 07:23:00,
2013-10-26 02:28:00,40.4,30.0,30.31,ESE,104,0.0,0.0,66,0.00,,,0.00,WeatherTracker,2013-10-26 07:28:00,
2013-10-26 02:33:00,40.3,29.5,30.31,ESE,103,0.0,0.0,65,0.00,,,0.00,WeatherTracker,2013-10-26 07:33:00,
2013-10-26 02:38:00,40.3,29.1,30.31,ENE,61,0.0,0.0,64,0.00,,,0.00,WeatherTracker,2013-10-26 07:38:00,
2013-10-26 02:43:00,40.4,28.8,30.30,ENE,72,0.0,0.0,63,0.00,,,0.00,WeatherTracker,2013-10-26 07:43:00,
2013-10-26 02:48:00,40.3,28.7,30.30,East,90,0.0,0.0,63,0.00,,,0.00,WeatherTracker,2013-10-26 07:48:00,
2013-10-26 02:53:00,40.4,28.8,30.30,East,87,0.0,0.0,63,0.00,,,0.00,WeatherTracker,2013-10-26 07:53:00,
2013-10-26 02:58:00,40.3,28.7,30.30,ENE,68,0.0,0.0,63,0.00,,,0.00,WeatherTracker,2013-10-26 07:58:00,
2013-10-26 03:04:00,40.3,29.1,30.30,ENE,68,0.0,0.0,64,0.00,,,0.00,WeatherTracker,2013-10-26 08:04:00,
2013-10-26 03:09:00,40.1,29.3,30.30,ENE,68,0.0,0.0,65,0.00,,,0.00,WeatherTracker,2013-10-26 08:09:00,
2013-10-26 03:14:00,40.1,29.3,30.29,ENE,64,0.0,0.0,65,0.00,,,0.00,WeatherTracker,2013-10-26 08:14:00,
2013-10-26 03:19:00,40.0,29.6,30.29,ENE,64,0.0,0.0,66,0.00,,,0.00,WeatherTracker,2013-10-26 08:19:00,
2013-10-26 03:24:00,39.8,29.4,30.30,ENE,64,0.0,0.0,66,0.00,,,0.00,WeatherTracker,2013-10-26 08:24:00,
2013-10-26 03:29:00,39.7,29.3,30.30,ENE,65,0.0,0.0,66,0.00,,,0.00,WeatherTracker,2013-10-26 08:29:00,
2013-10-26 03:34:00,39.6,29.6,30.29,ENE,64,0.0,0.0,67,0.00,,,0.00,WeatherTracker,2013-10-26 08:34:00,
2013-10-26 03:39:00,39.5,29.5,30.29,ENE,67,0.0,0.0,67,0.00,,,0.00,WeatherTracker,2013-10-26 08:39:00,
2013-10-26 03:44:00,39.5,29.8,30.29,ENE,78,0.0,0.0,68,0.00,,,0.00,WeatherTracker,2013-10-26 08:44:00,
2013-10-26 03:49:00,39.4,30.1,30.29,East,90,0.0,0.0,69,0.00,,,0.00,WeatherTracker,2013-10-26 08:49:00,
2013-10-26 03:54:00,39.4,30.4,30.29,ENE,69,0.0,0.0,70,0.00,,,0.00,WeatherTracker,2013-10-26 08:54:00,
2013-10-26 03:59:00,39.4,30.8,30.29,NE,47,0.0,0.0,71,0.00,,,0.00,WeatherTracker,2013-10-26 08:59:00,
2013-10-26 04:04:00,39.4,31.1,30.28,ESE,110,0.0,0.0,72,0.00,,,0.00,WeatherTracker,2013-10-26 09:04:00,
2013-10-26 04:09:00,39.4,31.5,30.28,NE,54,0.0,0.0,73,0.00,,,0.00,WeatherTracker,2013-10-26 09:09:00,
2013-10-26 04:14:00,39.4,31.8,30.28,East,95,1.0,0.0,74,0.00,,,0.00,WeatherTracker,2013-10-26 09:14:00,
2013-10-26 04:19:00,39.4,31.8,30.28,ENE,57,0.0,0.0,74,0.00,,,0.00,WeatherTracker,2013-10-26 09:19:00,
2013-10-26 04:24:00,39.4,31.8,30.28,ENE,67,0.0,0.0,74,0.00,,,0.00,WeatherTracker,2013-10-26 09:24:00,
2013-10-26 04:29:00,39.3,32.1,30.28,ENE,67,0.0,0.0,75,0.00,,,0.00,WeatherTracker,2013-10-26 09:29:00,
2013-10-26 04:34:00,39.3,32.1,30.29,ENE,67,0.0,0.0,75,0.00,,,0.00,WeatherTracker,2013-10-26 09:34:00,
2013-10-26 04:39:00,39.2,32.3,30.29,ENE,60,0.0,0.0,76,0.00,,,0.00,WeatherTracker,2013-10-26 09:39:00,
2013-10-26 04:44:00,39.1,32.2,30.29,ENE,57,0.0,0.0,76,0.00,,,0.00,WeatherTracker,2013-10-26 09:44:00,
2013-10-26 04:50:00,39.1,32.5,30.28,NNE,33,0.0,0.0,77,0.00,,,0.00,WeatherTracker,2013-10-26 09:50:00,
2013-10-26 04:55:00,39.1,32.5,30.29,East,86,0.0,0.0,77,0.00,,,0.00,WeatherTracker,2013-10-26 09:55:00,
2013-10-26 05:00:00,39.0,32.4,30.29,NW,323,1.0,0.0,77,0.00,,,0.00,WeatherTracker,2013-10-26 10:00:00,
2013-10-26 05:05:00,38.9,32.3,30.29,NW,323,0.0,0.0,77,0.00,,,0.00,WeatherTracker,2013-10-26 10:05:00,
2013-10-26 05:10:00,38.8,32.2,30.29,NW,323,0.0,0.0,77,0.00,,,0.00,WeatherTracker,2013-10-26 10:10:00,
2013-10-26 05:15:00,38.6,32.0,30.29,NW,323,0.0,0.0,77,0.00,,,0.00,WeatherTracker,2013-10-26 10:15:00,
2013-10-26 05:20:00,38.5,31.9,30.29,NW,323,0.0,0.0,77,0.00,,,0.00,WeatherTracker,2013-10-26 10:20:00,
2013-10-26 05:25:00,38.4,32.1,30.29,NW,325,0.0,0.0,78,0.00,,,0.00,WeatherTracker,2013-10-26 10:25:00,
2013-10-26 05:30:00,38.3,32.1,30.29,NW,325,0.0,0.0,78,0.00,,,0.00,WeatherTracker,2013-10-26 10:30:00,
2013-10-26 05:35:00,38.2,32.3,30.29,NW,325,0.0,0.0,79,0.00,,,0.00,WeatherTracker,2013-10-26 10:35:00,
2013-10-26 05:40:00,38.1,32.2,30.29,NW,325,0.0,0.0,79,0.00,,,0.00,WeatherTracker,2013-10-26 10:40:00,
2013-10-26 05:45:00,38.0,32.1,30.30,NW,325,0.0,0.0,79,0.00,,,0.00,WeatherTracker,2013-10-26 10:45:00,
2013-10-26 05:50:00,38.0,32.4,30.30,NW,325,0.0,0.0,80,0.00,,,0.00,WeatherTracker,2013-10-26 10:50:00,
2013-10-26 05:55:00,37.9,32.3,30.30,NW,325,0.0,0.0,80,0.00,,,0.00,WeatherTracker,2013-10-26 10:55:00,
2013-10-26 06:00:00,37.9,32.3,30.30,NW,325,0.0,0.0,80,0.00,,,0.00,WeatherTracker,2013-10-26 11:00:00,
2013-10-26 06:05:00,37.9,32.0,30.30,NW,325,0.0,0.0,79,0.00,,,0.00,WeatherTracker,2013-10-26 11:05:00,
2013-10-26 06:10:00,37.9,32.0,30.30,NW,325,0.0,0.0,79,0.00,,,0.00,WeatherTracker,2013-10-26 11:10:00,
2013-10-26 06:15:00,37.9,32.3,30.31,NW,325,0.0,0.0,80,0.00,,,0.00,WeatherTracker,2013-10-26 11:15:00,
2013-10-26 06:20:00,38.0,32.1,30.30,NW,325,0.0,0.0,79,0.00,,,0.00,WeatherTracker,2013-10-26 11:20:00,
2013-10-26 06:25:00,38.1,31.9,30.31,North,360,0.0,0.0,78,0.00,,,0.00,WeatherTracker,2013-10-26 11:25:00,
2013-10-26 06:30:00,38.2,32.0,30.31,North,10,0.0,0.0,78,0.00,,,0.00,WeatherTracker,2013-10-26 11:30:00,
2013-10-26 06:35:00,38.3,32.1,30.31,SE,136,0.0,0.0,78,0.00,,,0.00,WeatherTracker,2013-10-26 11:35:00,
2013-10-26 06:40:00,38.4,31.8,30.31,NE,48,0.0,0.0,77,0.00,,,0.00,WeatherTracker,2013-10-26 11:40:00,
2013-10-26 06:47:00,38.5,31.9,30.31,NE,48,0.0,0.0,77,0.00,,,0.00,WeatherTracker,2013-10-26 11:47:00,
2013-10-26 06:52:00,38.4,31.8,30.32,NE,48,0.0,0.0,77,0.00,,,0.00,WeatherTracker,2013-10-26 11:52:00,
2013-10-26 06:57:00,38.4,31.5,30.32,NE,48,0.0,0.0,76,0.00,,,0.00,WeatherTracker,2013-10-26 11:57:00,
2013-10-26 07:02:00,38.4,31.5,30.32,NE,53,0.0,0.0,76,0.00,,,0.00,WeatherTracker,2013-10-26 12:02:00,
2013-10-26 07:07:00,38.4,31.5,30.32,ESE,113,0.0,0.0,76,0.00,,,0.00,WeatherTracker,2013-10-26 12:07:00,
2013-10-26 07:13:00,38.3,31.1,30.32,ESE,113,0.0,0.0,75,0.00,,,0.00,WeatherTracker,2013-10-26 12:13:00,
2013-10-26 07:18:00,38.3,31.1,30.32,ESE,114,0.0,0.0,75,0.00,,,0.00,WeatherTracker,2013-10-26 12:18:00,
2013-10-26 07:23:00,38.3,31.1,30.32,ESE,114,0.0,0.0,75,0.00,,,0.00,WeatherTracker,2013-10-26 12:23:00,
2013-10-26 07:28:00,38.3,31.1,30.32,ESE,114,0.0,0.0,75,0.00,,,0.00,WeatherTracker,2013-10-26 12:28:00,
2013-10-26 07:33:00,38.3,31.1,30.32,ESE,114,0.0,0.0,75,0.00,,,0.00,WeatherTracker,2013-10-26 12:33:00,
2013-10-26 07:38:00,38.4,31.2,30.32,ESE,114,0.0,0.0,75,0.00,,,0.00,WeatherTracker,2013-10-26 12:38:00,
2013-10-26 07:43:00,38.5,31.3,30.32,ESE,115,0.0,0.0,75,0.00,,,0.00,WeatherTracker,2013-10-26 12:43:00,
2013-10-26 07:48:00,38.6,31.4,30.32,ESE,114,0.0,0.0,75,0.00,,,0.00,WeatherTracker,2013-10-26 12:48:00,
2013-10-26 07:53:00,38.7,31.5,30.32,ESE,115,0.0,0.0,75,0.00,,,0.00,WeatherTracker,2013-10-26 12:53:00,
2013-10-26 07:58:00,38.8,31.6,30.32,ESE,115,0.0,0.0,75,0.00,,,0.00,WeatherTracker,2013-10-26 12:58:00,
2013-10-26 08:03:00,38.9,31.7,30.32,ESE,115,0.0,0.0,75,0.00,,,0.00,WeatherTracker,2013-10-26 13:03:00,
2013-10-26 08:08:00,39.1,31.9,30.33,ESE,114,0.0,0.0,75,0.00,,,0.00,WeatherTracker,2013-10-26 13:08:00,
2013-10-26 08:13:00,39.3,32.1,30.32,ESE,123,0.0,0.0,75,0.00,,,0.00,WeatherTracker,2013-10-26 13:13:00,
2013-10-26 08:18:00,39.5,32.2,30.32,ESE,123,0.0,0.0,75,0.00,,,0.00,WeatherTracker,2013-10-26 13:18:00,
2013-10-26 08:23:00,39.7,32.1,30.32,ESE,123,0.0,0.0,74,0.00,,,0.00,WeatherTracker,2013-10-26 13:23:00,
2013-10-26 08:28:00,40.1,32.2,30.32,SSE,148,0.0,0.0,73,0.00,,,0.00,WeatherTracker,2013-10-26 13:28:00,
2013-10-26 08:33:00,40.5,32.5,30.32,SE,144,0.0,0.0,73,0.00,,,0.00,WeatherTracker,2013-10-26 13:33:00,
2013-10-26 08:38:00,40.9,32.9,30.32,SE,144,0.0,0.0,73,0.00,,,0.00,WeatherTracker,2013-10-26 13:38:00,
2013-10-26 08:43:00,41.2,32.9,30.32,SSW,210,0.0,0.0,72,0.00,,,0.00,WeatherTracker,2013-10-26 13:43:00,
2013-10-26 08:48:00,41.9,33.5,30.32,ENE,63,0.0,0.0,72,0.00,,,0.00,WeatherTracker,2013-10-26 13:48:00,
2013-10-26 08:53:00,42.5,33.8,30.32,ENE,57,0.0,0.0,71,0.00,,,0.00,WeatherTracker,2013-10-26 13:53:00,
2013-10-26 08:58:00,43.3,34.2,30.32,SSE,152,0.0,0.0,70,0.00,,,0.00,WeatherTracker,2013-10-26 13:58:00,
2013-10-26 09:03:00,44.1,34.6,30.32,WSW,238,0.0,0.0,69,0.00,,,0.00,WeatherTracker,2013-10-26 14:03:00,
2013-10-26 09:08:00,45.0,35.1,30.32,NNW,348,0.0,0.0,68,0.00,,,0.00,WeatherTracker,2013-10-26 14:08:00,
2013-10-26 09:13:00,45.7,35.4,30.32,SE,130,0.0,0.0,67,0.00,,,0.00,WeatherTracker,2013-10-26 14:13:00,
2013-10-26 09:18:00,46.5,35.8,30.32,South,186,0.0,0.0,66,0.00,,,0.00,WeatherTracker,2013-10-26 14:18:00,
2013-10-26 09:23:00,47.1,36.3,30.32,NW,311,0.0,0.0,66,0.00,,,0.00,WeatherTracker,2013-10-26 14:23:00,
2013-10-26 09:28:00,47.6,36.0,30.32,ESE,115,0.0,0.0,64,0.00,,,0.00,WeatherTracker,2013-10-26 14:28:00,
2013-10-26 09:33:00,48.1,36.9,30.31,WSW,240,0.0,0.0,65,0.00,,,0.00,WeatherTracker,2013-10-26 14:33:00,
2013-10-26 09:38:00,48.6,37.0,30.31,South,175,0.0,0.0,64,0.00,,,0.00,WeatherTracker,2013-10-26 14:38:00,
2013-10-26 09:43:00,48.8,36.0,30.31,SE,136,0.0,0.0,61,0.00,,,0.00,WeatherTracker,2013-10-26 14:43:00,
2013-10-26 09:49:00,49.2,36.7,30.31,WSW,243,0.0,0.0,62,0.00,,,0.00,WeatherTracker,2013-10-26 14:49:00,
2013-10-26 09:54:00,49.4,35.2,30.31,SE,142,0.0,0.0,58,0.00,,,0.00,WeatherTracker,2013-10-26 14:54:00,
2013-10-26 09:59:00,49.5,35.8,30.31,North,350,0.0,0.0,59,0.00,,,0.00,WeatherTracker,2013-10-26 14:59:00,
2013-10-26 10:04:00,49.6,35.0,30.31,West,267,0.0,0.0,57,0.00,,,0.00,WeatherTracker,2013-10-26 15:04:00,
2013-10-26 10:09:00,49.5,34.9,30.31,West,267,0.0,0.0,57,0.00,,,0.00,WeatherTracker,2013-10-26 15:09:00,
2013-10-26 10:14:00,49.4,35.2,30.31,West,267,0.0,0.0,58,0.00,,,0.00,WeatherTracker,2013-10-26 15:14:00,
2013-10-26 10:19:00,49.3,35.2,30.31,West,267,0.0,0.0,58,0.00,,,0.00,WeatherTracker,2013-10-26 15:19:00,
2013-10-26 10:24:00,49.2,35.1,30.31,ENE,61,0.0,0.0,58,0.00,,,0.00,WeatherTracker,2013-10-26 15:24:00,
2013-10-26 10:29:00,49.3,35.6,30.30,WNW,299,0.0,0.0,59,0.00,,,0.00,WeatherTracker,2013-10-26 15:29:00,
2013-10-26 10:34:00,49.6,35.9,30.31,West,281,0.0,0.0,59,0.00,,,0.00,WeatherTracker,2013-10-26 15:34:00,
2013-10-26 10:39:00,49.8,36.1,30.31,WNW,289,0.0,0.0,59,0.00,,,0.00,WeatherTracker,2013-10-26 15:39:00,
2013-10-26 10:44:00,50.1,36.8,30.30,WNW,291,0.0,0.0,60,0.00,,,0.00,WeatherTracker,2013-10-26 15:44:00,
2013-10-26 10:49:00,50.6,36.4,30.30,WNW,290,0.0,0.0,58,0.00,,,0.00,WeatherTracker,2013-10-26 15:49:00,
2013-10-26 10:54:00,51.4,37.6,30.30,West,281,0.0,0.0,59,0.00,,,0.00,WeatherTracker,2013-10-26 15:54:00,
2013-10-26 10:59:00,51.7,36.5,30.30,WNW,282,0.0,0.0,56,0.00,,,0.00,WeatherTracker,2013-10-26 15:59:00,
2013-10-26 11:04:00,52.3,37.5,30.30,WNW,288,0.0,0.0,57,0.00,,,0.00,WeatherTracker,2013-10-26 16:04:00,
2013-10-26 11:09:00,52.5,37.3,30.30,NW,318,0.0,0.0,56,0.00,,,0.00,WeatherTracker,2013-10-26 16:09:00,
2013-10-26 11:14:00,53.1,38.3,30.29,NW,318,0.0,0.0,57,0.00,,,0.00,WeatherTracker,2013-10-26 16:14:00,
2013-10-26 11:19:00,53.5,37.7,30.30,NW,311,0.0,0.0,55,0.00,,,0.00,WeatherTracker,2013-10-26 16:19:00,
2013-10-26 11:24:00,54.1,37.8,30.29,NW,311,0.0,0.0,54,0.00,,,0.00,WeatherTracker,2013-10-26 16:24:00,
2013-10-26 11:30:00,54.6,37.8,30.29,NW,311,0.0,0.0,53,0.00,,,0.00,WeatherTracker,2013-10-26 16:30:00,
2013-10-26 11:35:00,54.8,37.5,30.29,WNW,299,1.0,0.0,52,0.00,,,0.00,WeatherTracker,2013-10-26 16:35:00,
2013-10-26 11:40:00,54.5,37.2,30.29,WNW,284,0.0,0.0,52,0.00,,,0.00,WeatherTracker,2013-10-26 16:40:00,
2013-10-26 11:45:00,54.7,37.4,30.29,West,271,0.0,0.0,52,0.00,,,0.00,WeatherTracker,2013-10-26 16:45:00,
2013-10-26 11:50:00,54.7,36.9,30.28,WNW,296,1.0,0.0,51,0.00,,,0.00,WeatherTracker,2013-10-26 16:50:00,
2013-10-26 11:55:00,54.6,36.3,30.28,West,269,0.0,0.0,50,0.00,,,0.00,WeatherTracker,2013-10-26 16:55:00,
2013-10-26 12:00:00,54.7,36.9,30.28,West,273,0.0,0.0,51,0.00,,,0.00,WeatherTracker,2013-10-26 17:00:00,
2013-10-26 12:05:00,54.9,37.6,30.28,WNW,288,0.0,0.0,52,0.00,,,0.00,WeatherTracker,2013-10-26 17:05:00,
2013-10-26 12:10:00,54.9,36.6,30.28,WNW,283,0.0,0.0,50,0.00,,,0.00,WeatherTracker,2013-10-26 17:10:00,
2013-10-26 12:15:00,55.0,36.2,30.27,WNW,303,0.0,0.0,49,0.00,,,0.00,WeatherTracker,2013-10-26 17:15:00,
2013-10-26 12:20:00,55.2,36.9,30.27,West,263,1.0,0.0,50,0.00,,,0.00,WeatherTracker,2013-10-26 17:20:00,
2013-10-26 12:25:00,55.4,37.1,30.26,NW,313,0.0,0.0,50,0.00,,,0.00,WeatherTracker,2013-10-26 17:25:00,
2013-10-26 12:30:00,55.5,37.2,30.27,NW,313,0.0,0.0,50,0.00,,,0.00,WeatherTracker,2013-10-26 17:30:00,
2013-10-26 12:35:00,55.6,36.2,30.25,NW,318,0.0,0.0,48,0.00,,,0.00,WeatherTracker,2013-10-26 17:35:00,
2013-10-26 12:40:00,55.7,35.8,30.24,NW,323,0.0,0.0,47,0.00,,,0.00,WeatherTracker,2013-10-26 17:40:00,
2013-10-26 12:45:00,55.6,35.2,30.24,West,271,0.0,0.0,46,0.00,,,0.00,WeatherTracker,2013-10-26 17:45:00,
2013-10-26 12:50:00,55.7,37.3,30.24,SSE,156,0.0,0.0,50,0.00,,,0.00,WeatherTracker,2013-10-26 17:50:00,
2013-10-26 12:55:00,55.6,35.2,30.24,WNW,288,0.0,0.0,46,0.00,,,0.00,WeatherTracker,2013-10-26 17:55:00,
2013-10-26 13:00:00,55.7,36.3,30.24,WNW,294,5.0,0.0,48,0.00,,,0.00,WeatherTracker,2013-10-26 18:00:00,
2013-10-26 13:05:00,55.9,35.4,30.24,West,261,0.0,0.0,46,0.00,,,0.00,WeatherTracker,2013-10-26 18:05:00,
2013-10-26 13:10:00,56.1,36.1,30.24,NW,309,0.0,0.0,47,0.00,,,0.00,WeatherTracker,2013-10-26 18:10:00,
2013-10-26 13:15:00,56.4,35.9,30.23,South,190,0.0,0.0,46,0.00,,,0.00,WeatherTracker,2013-10-26 18:15:00,
2013-10-26 13:20:00,56.6,35.5,30.24,NW,306,3.0,0.0,45,0.00,,,0.00,WeatherTracker,2013-10-26 18:20:00,
2013-10-26 13:25:00,57.0,37.0,30.23,West,270,2.0,0.0,47,0.00,,,0.00,WeatherTracker,2013-10-26 18:25:00,
2013-10-26 13:30:00,57.4,37.3,30.22,WNW,284,1.0,0.0,47,0.00,,,0.00,WeatherTracker,2013-10-26 18:30:00,
2013-10-26 13:36:00,58.0,36.2,30.22,WNW,300,0.0,0.0,44,0.00,,,0.00,WeatherTracker,2013-10-26 18:36:00,
2013-10-26 13:41:00,58.5,36.7,30.22,NNW,343,1.0,0.0,44,0.00,,,0.00,WeatherTracker,2013-10-26 18:41:00,
2013-10-26 13:46:00,58.8,35.8,30.22,WNW,298,0.0,0.0,42,0.00,,,0.00,WeatherTracker,2013-10-26 18:46:00,
2013-10-26 13:51:00,59.0,36.5,30.21,WNW,298,0.0,0.0,43,0.00,,,0.00,WeatherTracker,2013-10-26 18:51:00,
2013-10-26 13:56:00,59.0,37.7,30.21,WNW,298,0.0,0.0,45,0.00,,,0.00,WeatherTracker,2013-10-26 18:56:00,
2013-10-26 14:01:00,59.0,36.5,30.21,NW,306,0.0,0.0,43,0.00,,,0.00,WeatherTracker,2013-10-26 19:01:00,
2013-10-26 14:06:00,59.1,36.6,30.21,West,271,0.0,0.0,43,0.00,,,0.00,WeatherTracker,2013-10-26 19:06:00,
2013-10-26 14:11:00,59.4,36.9,30.21,West,271,0.0,0.0,43,0.00,,,0.00,WeatherTracker,2013-10-26 19:11:00,
2013-10-26 14:16:00,59.5,38.1,30.21,West,271,0.0,0.0,45,0.00,,,0.00,WeatherTracker,2013-10-26 19:16:00,
2013-10-26 14:21:00,59.5,36.4,30.21,WNW,296,0.0,0.0,42,0.00,,,0.00,WeatherTracker,2013-10-26 19:21:00,
2013-10-26 14:26:00,59.6,38.2,30.21,WNW,296,0.0,0.0,45,0.00,,,0.00,WeatherTracker,2013-10-26 19:26:00,
2013-10-26 14:31:00,59.9,37.3,30.21,WNW,300,0.0,0.0,43,0.00,,,0.00,WeatherTracker,2013-10-26 19:31:00,
2013-10-26 14:36:00,60.2,38.2,30.21,WNW,300,0.0,0.0,44,0.00,,,0.00,WeatherTracker,2013-10-26 19:36:00,
2013-10-26 14:41:00,60.4,38.4,30.21,NW,317,0.0,0.0,44,0.00,,,0.00,WeatherTracker,2013-10-26 19:41:00,
2013-10-26 14:46:00,60.5,38.5,30.21,NW,310,0.0,0.0,44,0.00,,,0.00,WeatherTracker,2013-10-26 19:46:00,
2013-10-26 14:51:00,60.7,38.7,30.21,North,355,4.0,0.0,44,0.00,,,0.00,WeatherTracker,2013-10-26 19:51:00,
2013-10-26 14:56:00,60.7,39.8,30.20,WNW,287,0.0,0.0,46,0.00,,,0.00,WeatherTracker,2013-10-26 19:56:00,
2013-10-26 15:01:00,60.9,38.3,30.21,WNW,288,0.0,0.0,43,0.00,,,0.00,WeatherTracker,2013-10-26 20:01:00,
2013-10-26 15:06:00,61.0,38.3,30.21,WNW,302,0.0,0.0,43,0.00,,,0.00,WeatherTracker,2013-10-26 20:06:00,
2013-10-26 15:11:00,60.9,38.8,30.20,WNW,302,0.0,0.0,44,0.00,,,0.00,WeatherTracker,2013-10-26 20:11:00,
2013-10-26 15:16:00,60.8,38.2,30.20,WNW,302,0.0,0.0,43,0.00,,,0.00,WeatherTracker,2013-10-26 20:16:00,
2013-10-26 15:21:00,60.6,39.7,30.20,WSW,255,2.0,0.0,46,0.00,,,0.00,WeatherTracker,2013-10-26 20:21:00,
2013-10-26 15:26:00,60.4,39.5,30.20,WSW,258,0.0,0.0,46,0.00,,,0.00,WeatherTracker,2013-10-26 20:26:00,
2013-10-26 15:31:00,60.4,39.5,30.19,NW,316,0.0,0.0,46,0.00,,,0.00,WeatherTracker,2013-10-26 20:31:00,
2013-10-26 15:36:00,60.3,39.4,30.19,NW,316,0.0,0.0,46,0.00,,,0.00,WeatherTracker,2013-10-26 20:36:00,
2013-10-26 15:41:00,60.3,39.4,30.19,NW,316,0.0,0.0,46,0.00,,,0.00,WeatherTracker,2013-10-26 20:41:00,
2013-10-26 15:46:00,60.3,40.0,30.19,WNW,295,0.0,0.0,47,0.00,,,0.00,WeatherTracker,2013-10-26 20:46:00,
2013-10-26 15:51:00,60.2,40.4,30.19,WNW,296,0.0,0.0,48,0.00,,,0.00,WeatherTracker,2013-10-26 20:51:00,
2013-10-26 15:57:00,60.3,40.0,30.18,WNW,295,0.0,0.0,47,0.00,,,0.00,WeatherTracker,2013-10-26 20:57:00,
2013-10-26 16:02:00,60.5,40.2,30.18,WNW,296,0.0,0.0,47,0.00,,,0.00,WeatherTracker,2013-10-26 21:02:00,
2013-10-26 16:07:00,60.5,39.6,30.18,West,281,0.0,0.0,46,0.00,,,0.00,WeatherTracker,2013-10-26 21:07:00,
2013-10-26 16:12:00,60.6,40.3,30.16,West,281,0.0,0.0,47,0.00,,,0.00,WeatherTracker,2013-10-26 21:12:00,
2013-10-26 16:17:00,60.6,40.3,30.16,West,274,0.0,0.0,47,0.00,,,0.00,WeatherTracker,2013-10-26 21:17:00,
2013-10-26 16:22:00,60.5,40.7,30.18,West,273,0.0,0.0,48,0.00,,,0.00,WeatherTracker,2013-10-26 21:22:00,
2013-10-26 16:27:00,60.4,40.6,30.17,WNW,296,0.0,0.0,48,0.00,,,0.00,WeatherTracker,2013-10-26 21:27:00,
2013-10-26 16:32:00,60.3,40.5,30.17,North,355,0.0,0.0,48,0.00,,,0.00,WeatherTracker,2013-10-26 21:32:00,
2013-10-26 16:37:00,60.3,41.1,30.17,WNW,291,0.0,0.0,49,0.00,,,0.00,WeatherTracker,2013-10-26 21:37:00,
2013-10-26 16:42:00,60.4,41.2,30.15,WNW,291,0.0,0.0,49,0.00,,,0.00,WeatherTracker,2013-10-26 21:42:00,
2013-10-26 16:47:00,60.3,41.1,30.16,WNW,291,0.0,0.0,49,0.00,,,0.00,WeatherTracker,2013-10-26 21:47:00,
2013-10-26 16:52:00,60.2,41.0,30.16,WNW,291,0.0,0.0,49,0.00,,,0.00,WeatherTracker,2013-10-26 21:52:00,
2013-10-26 16:57:00,60.0,41.3,30.16,WNW,291,1.0,0.0,50,0.00,,,0.00,WeatherTracker,2013-10-26 21:57:00,
2013-10-26 17:02:00,59.8,41.1,30.16,WNW,291,0.0,0.0,50,0.00,,,0.00,WeatherTracker,2013-10-26 22:02:00,
2013-10-26 17:07:00,59.5,40.8,30.15,WNW,291,0.0,0.0,50,0.00,,,0.00,WeatherTracker,2013-10-26 22:07:00,
2013-10-26 17:12:00,59.0,40.4,30.16,WNW,291,0.0,0.0,50,0.00,,,0.00,WeatherTracker,2013-10-26 22:12:00,
2013-10-26 17:17:00,59.0,40.9,30.16,WNW,291,0.0,0.0,51,0.00,,,0.00,WeatherTracker,2013-10-26 22:17:00,
2013-10-26 17:22:00,58.5,40.4,30.16,WNW,291,0.0,0.0,51,0.00,,,0.00,WeatherTracker,2013-10-26 22:22:00,
2013-10-26 17:27:00,58.3,40.3,30.16,WNW,291,0.0,0.0,51,0.00,,,0.00,WeatherTracker,2013-10-26 22:27:00,
2013-10-26 17:32:00,58.1,40.6,30.16,WNW,291,0.0,0.0,52,0.00,,,0.00,WeatherTracker,2013-10-26 22:32:00,
2013-10-26 17:37:00,57.9,40.4,30.16,WNW,291,0.0,0.0,52,0.00,,,0.00,WeatherTracker,2013-10-26 22:37:00,
2013-10-26 17:42:00,57.6,40.1,30.16,WNW,291,0.0,0.0,52,0.00,,,0.00,WeatherTracker,2013-10-26 22:42:00,
2013-10-26 17:47:00,57.3,39.8,30.16,WNW,291,0.0,0.0,52,0.00,,,0.00,WeatherTracker,2013-10-26 22:47:00,
2013-10-26 17:52:00,56.9,39.5,30.16,WNW,291,0.0,0.0,52,0.00,,,0.00,WeatherTracker,2013-10-26 22:52:00,
2013-10-26 17:58:00,56.4,39.0,30.16,WNW,291,0.0,0.0,52,0.00,,,0.00,WeatherTracker,2013-10-26 22:58:00,
2013-10-26 18:03:00,56.0,39.1,30.16,WNW,291,0.0,0.0,53,0.00,,,0.00,WeatherTracker,2013-10-26 23:03:00,
2013-10-26 18:08:00,55.5,39.1,30.16,WNW,291,0.0,0.0,54,0.00,,,0.00,WeatherTracker,2013-10-26 23:08:00,
2013-10-26 18:13:00,55.1,38.8,30.15,WNW,291,0.0,0.0,54,0.00,,,0.00,WeatherTracker,2013-10-26 23:13:00,
2013-10-26 18:18:00,54.9,38.6,30.16,West,271,1.0,0.0,54,0.00,,,0.00,WeatherTracker,2013-10-26 23:18:00,
2013-10-26 18:23:00,54.7,38.9,30.16,West,270,0.0,0.0,55,0.00,,,0.00,WeatherTracker,2013-10-26 23:23:00,
2013-10-26 18:28:00,54.4,38.6,30.16,WNW,299,0.0,0.0,55,0.00,,,0.00,WeatherTracker,2013-10-26 23:28:00,
2013-10-26 18:33:00,54.3,38.5,30.16,WNW,298,0.0,0.0,55,0.00,,,0.00,WeatherTracker,2013-10-26 23:33:00,
2013-10-26 18:38:00,54.1,38.3,30.16,WNW,294,0.0,0.0,55,0.00,,,0.00,WeatherTracker,2013-10-26 23:38:00,
2013-10-26 18:43:00,54.0,37.7,30.16,WNW,294,0.0,0.0,54,0.00,,,0.00,WeatherTracker,2013-10-26 23:43:00,
2013-10-26 18:48:00,53.9,38.1,30.16,WNW,294,0.0,0.0,55,0.00,,,0.00,WeatherTracker,2013-10-26 23:48:00,
2013-10-26 18:53:00,53.9,38.1,30.16,WNW,294,0.0,0.0,55,0.00,,,0.00,WeatherTracker,2013-10-26 23:53:00,
2013-10-26 18:58:00,53.9,38.1,30.17,WNW,294,0.0,0.0,55,0.00,,,0.00,WeatherTracker,2013-10-26 23:58:00,
2013-10-26 19:03:00,53.9,38.1,30.16,WNW,294,0.0,0.0,55,0.00,,,0.00,WeatherTracker,2013-10-27 00:03:00,
2013-10-26 19:08:00,53.9,38.1,30.16,WNW,294,0.0,0.0,55,0.00,,,0.00,WeatherTracker,2013-10-27 00:08:00,
2013-10-26 19:13:00,54.0,38.2,30.16,WNW,294,0.0,0.0,55,0.00,,,0.00,WeatherTracker,2013-10-27 00:13:00,
2013-10-26 19:18:00,54.0,38.7,30.17,WNW,294,0.0,0.0,56,0.00,,,0.00,WeatherTracker,2013-10-27 00:18:00,
2013-10-26 19:23:00,53.9,38.1,30.16,WNW,294,1.0,0.0,55,0.00,,,0.00,WeatherTracker,2013-10-27 00:23:00,
2013-10-26 19:28:00,53.9,38.6,30.17,WNW,294,0.0,0.0,56,0.00,,,0.00,WeatherTracker,2013-10-27 00:28:00,
2013-10-26 19:33:00,54.0,38.2,30.17,West,281,0.0,0.0,55,0.00,,,0.00,WeatherTracker,2013-10-27 00:33:00,
2013-10-26 19:38:00,54.1,38.3,30.16,West,263,0.0,0.0,55,0.00,,,0.00,WeatherTracker,2013-10-27 00:38:00,
2013-10-26 19:43:00,54.2,38.4,30.16,West,263,1.0,0.0,55,0.00,,,0.00,WeatherTracker,2013-10-27 00:43:00,
2013-10-26 19:48:00,54.4,38.6,30.16,West,263,0.0,0.0,55,0.00,,,0.00,WeatherTracker,2013-10-27 00:48:00,
2013-10-26 19:53:00,54.5,38.7,30.16,WSW,252,1.0,0.0,55,0.00,,,0.00,WeatherTracker,2013-10-27 00:53:00,
2013-10-26 19:58:00,54.4,38.6,30.16,WSW,252,0.0,0.0,55,0.00,,,0.00,WeatherTracker,2013-10-27 00:58:00,
2013-10-26 20:04:00,54.5,39.1,30.16,WSW,250,0.0,0.0,56,0.00,,,0.00,WeatherTracker,2013-10-27 01:04:00,
2013-10-26 20:09:00,54.4,39.0,30.16,WSW,252,0.0,0.0,56,0.00,,,0.00,WeatherTracker,2013-10-27 01:09:00,
2013-10-26 20:14:00,54.3,39.4,30.15,WSW,252,1.0,0.0,57,0.00,,,0.00,WeatherTracker,2013-10-27 01:14:00,
2013-10-26 20:19:00,54.2,39.3,30.16,WSW,250,0.0,0.0,57,0.00,,,0.00,WeatherTracker,2013-10-27 01:19:00,
2013-10-26 20:24:00,54.1,39.2,30.16,West,279,0.0,0.0,57,0.00,,,0.00,WeatherTracker,2013-10-27 01:24:00,
2013-10-26 20:29:00,54.0,39.1,30.16,West,279,0.0,0.0,57,0.00,,,0.00,WeatherTracker,2013-10-27 01:29:00,
2013-10-26 20:34:00,53.9,39.5,30.16,West,279,0.0,0.0,58,0.00,,,0.00,WeatherTracker,2013-10-27 01:34:00,
2013-10-26 20:39:00,53.8,39.4,30.16,West,279,0.0,0.0,58,0.00,,,0.00,WeatherTracker,2013-10-27 01:39:00,
2013-10-26 20:44:00,53.7,39.3,30.17,WNW,282,0.0,0.0,58,0.00,,,0.00,WeatherTracker,2013-10-27 01:44:00,
2013-10-26 20:49:00,53.5,39.5,30.18,WNW,282,0.0,0.0,59,0.00,,,0.00,WeatherTracker,2013-10-27 01:49:00,
2013-10-26 20:54:00,53.3,39.8,30.17,West,281,0.0,0.0,60,0.00,,,0.00,WeatherTracker,2013-10-27 01:54:00,
2013-10-26 20:59:00,53.1,39.6,30.17,WNW,282,0.0,0.0,60,0.00,,,0.00,WeatherTracker,2013-10-27 01:59:00,
2013-10-26 21:04:00,52.8,39.3,30.17,WNW,282,0.0,0.0,60,0.00,,,0.00,WeatherTracker,2013-10-27 02:04:00,
2013-10-26 21:09:00,52.6,39.1,30.17,West,281,0.0,0.0,60,0.00,,,0.00,WeatherTracker,2013-10-27 02:09:00,
2013-10-26 21:14:00,52.4,38.9,30.17,West,281,0.0,0.0,60,0.00,,,0.00,WeatherTracker,2013-10-27 02:14:00,
2013-10-26 21:19:00,52.3,39.3,30.17,WNW,282,0.0,0.0,61,0.00,,,0.00,WeatherTracker,2013-10-27 02:19:00,
2013-10-26 21:24:00,52.2,39.6,30.18,West,281,0.0,0.0,62,0.00,,,0.00,WeatherTracker,2013-10-27 02:24:00,
2013-10-26 21:29:00,52.1,39.5,30.18,West,281,0.0,0.0,62,0.00,,,0.00,WeatherTracker,2013-10-27 02:29:00,
2013-10-26 21:34:00,52.1,39.5,30.18,WNW,282,0.0,0.0,62,0.00,,,0.00,WeatherTracker,2013-10-27 02:34:00,
2013-10-26 21:39:00,52.0,39.4,30.18,West,281,0.0,0.0,62,0.00,,,0.00,WeatherTracker,2013-10-27 02:39:00,
2013-10-26 21:44:00,51.9,39.3,30.18,West,281,0.0,0.0,62,0.00,,,0.00,WeatherTracker,2013-10-27 02:44:00,
2013-10-26 21:49:00,51.9,39.7,30.17,WNW,282,0.0,0.0,63,0.00,,,0.00,WeatherTracker,2013-10-27 02:49:00,
2013-10-26 21:55:00,51.8,39.6,30.18,WNW,282,0.0,0.0,63,0.00,,,0.00,WeatherTracker,2013-10-27 02:55:00,
2013-10-26 22:00:00,51.7,39.9,30.17,WNW,282,0.0,0.0,64,0.00,,,0.00,WeatherTracker,2013-10-27 03:00:00,
2013-10-26 22:05:00,51.5,39.7,30.17,WNW,282,0.0,0.0,64,0.00,,,0.00,WeatherTracker,2013-10-27 03:05:00,
2013-10-26 22:10:00,51.4,39.6,30.18,West,281,0.0,0.0,64,0.00,,,0.00,WeatherTracker,2013-10-27 03:10:00,
2013-10-26 22:15:00,51.3,39.9,30.17,WNW,282,0.0,0.0,65,0.00,,,0.00,WeatherTracker,2013-10-27 03:15:00,
2013-10-26 22:20:00,51.2,40.2,30.18,WNW,282,0.0,0.0,66,0.00,,,0.00,WeatherTracker,2013-10-27 03:20:00,
2013-10-26 22:25:00,51.2,40.2,30.18,WNW,282,0.0,0.0,66,0.00,,,0.00,WeatherTracker,2013-10-27 03:25:00,
2013-10-26 22:30:00,51.3,40.3,30.17,West,281,0.0,0.0,66,0.00,,,0.00,WeatherTracker,2013-10-27 03:30:00,
2013-10-26 22:35:00,51.4,40.8,30.17,West,281,0.0,0.0,67,0.00,,,0.00,WeatherTracker,2013-10-27 03:35:00,
2013-10-26 22:40:00,51.5,40.9,30.17,West,281,0.0,0.0,67,0.00,,,0.00,WeatherTracker,2013-10-27 03:40:00,
2013-10-26 22:45:00,51.6,40.6,30.17,West,281,0.0,0.0,66,0.00,,,0.00,WeatherTracker,2013-10-27 03:45:00,
2013-10-26 22:50:00,51.7,40.7,30.16,WNW,282,0.0,0.0,66,0.00,,,0.00,WeatherTracker,2013-10-27 03:50:00,
2013-10-26 22:55:00,51.9,40.9,30.16,West,281,0.0,0.0,66,0.00,,,0.00,WeatherTracker,2013-10-27 03:55:00,
2013-10-26 23:00:00,52.1,41.1,30.15,West,281,0.0,0.0,66,0.00,,,0.00,WeatherTracker,2013-10-27 04:00:00,
2013-10-26 23:01:00,52.1,41.1,30.15,WNW,282,1.0,0.0,66,0.00,,,0.00,WeatherTracker,2013-10-27 04:01:00,
2013-10-26 23:02:00,52.1,41.1,30.16,WNW,282,0.0,0.0,66,0.00,,,0.00,WeatherTracker,2013-10-27 04:02:00,
2013-10-26 23:03:00,52.1,41.1,30.16,WNW,282,0.0,0.0,66,0.00,,,0.00,WeatherTracker,2013-10-27 04:03:00,
2013-10-26 23:08:00,52.3,41.3,30.15,West,281,0.0,0.0,66,0.00,,,0.00,WeatherTracker,2013-10-27 04:08:00,
2013-10-26 23:13:00,52.6,41.6,30.15,WNW,282,0.0,0.0,66,0.00,,,0.00,WeatherTracker,2013-10-27 04:13:00,
2013-10-26 23:18:00,52.8,41.4,30.16,West,281,0.0,0.0,65,0.00,,,0.00,WeatherTracker,2013-10-27 04:18:00,
2013-10-26 23:23:00,53.0,41.6,30.16,West,281,0.0,0.0,65,0.00,,,0.00,WeatherTracker,2013-10-27 04:23:00,
2013-10-26 23:28:00,53.1,41.6,30.15,West,281,0.0,0.0,65,0.00,,,0.00,WeatherTracker,2013-10-27 04:28:00,
2013-10-26 23:33:00,53.3,41.8,30.15,West,281,0.0,0.0,65,0.00,,,0.00,WeatherTracker,2013-10-27 04:33:00,
2013-10-26 23:38:00,53.5,41.6,30.15,West,281,0.0,0.0,64,0.00,,,0.00,WeatherTracker,2013-10-27 04:38:00,
2013-10-26 23:44:00,53.6,41.7,30.15,West,281,0.0,0.0,64,0.00,,,0.00,WeatherTracker,2013-10-27 04:44:00,
2013-10-26 23:49:00,53.6,41.7,30.15,West,281,0.0,0.0,64,0.00,,,0.00,WeatherTracker,2013-10-27 04:49:00,
2013-10-26 23:54:00,53.6,41.7,30.14,West,281,0.0,0.0,64,0.00,,,0.00,WeatherTracker,2013-10-27 04:54:00,
2013-10-26 23:59:00,53.5,41.6,30.14,West,281,0.0,0.0,64,0.00,,,0.00,WeatherTracker,2013-10-27 04:59:00,